Regional Weather Roundup
Issued by NWS

Home | Current Version | Previous Version | Graphics & Text | Print | Product List | Glossary On
Versions: 1 2 3 4 5 6 7 8 9 10 11 12 13 14 15 16 17 18 19 20 21 22 23 24 25 26 27 28 29 30 31 32 33 34 35 36 37 38 39 40 41 42 43 44 45 46 47 48 49 50
000
ASUS45 KABQ 060910
RWRNM
WEATHER ROUNDUP FOR NEW MEXICO
NATIONAL WEATHER SERVICE ALBUQUERQUE NM
300 AM MDT WED MAY 06 2015

NOTE: "FAIR" MEANS FEW OR NO CLOUDS BELOW 12,000 FEET AGL WITH NO
       SIGNIFICANT WEATHER OR OBSTRUCTIONS TO VISION.

      THIS PRODUCT IS RELEASED AS TWO VERSIONS.  ONE VERSION NEAR
      THE TOP OF THE HOUR CONTAINING PRELIMINARY DATA FROM ALBUQUERQUE
      AND OTHER STATIONS.  A FINAL VERSION WITH ADDITIONAL DATA IS
      ISSUED ABOUT 10 MINUTES AFTER THE HOUR.

NMZ501-503-504-510>518-061000-
NORTHWEST PLATEAU/NORTHCENTRAL MOUNTAINS

CITY           SKY/WX    TMP DP  RH WIND       PRES   REMARKS
FARMINGTON     LGT RAIN  49  46  90 W10       29.89F
LOS ALAMOS     CLOUDY    45  44  98 S8        29.96S
SANTA FE       CLOUDY    48  44  86 W6        29.94F
TAOS           CLOUDY    45  37  76 SW9       29.93F
ANGEL FIRE     DRIZZLE   41  37  84 W5        29.91F

$$
NMZ402-403-502-505>509-061000-
WESTCENTRAL MOUNTAINS/SOUTHWEST MOUNTAINS

CITY           SKY/WX    TMP DP  RH WIND       PRES   REMARKS
GALLUP         CLOUDY    47  44  90 SW10      29.98F
GRANTS         MOCLDY    48  41  77 NW3       30.00F
SILVER CITY      N/A     46  37  71 N12       30.02F

$$
NMZ407-409-411-412-061000-
SOUTHERN DESERTS

CITY           SKY/WX    TMP DP  RH WIND       PRES   REMARKS
LORDSBURG      FAIR      50  39  66 NW3       29.97F
DEMING         CLEAR     50  38  63 W6        29.97F
LAS CRUCES     CLEAR     52  36  55 W7        29.96F
HOLLOMAN AFB   PTCLDY    58  40  51 E2        29.91F
ALAMOGORDO     PTCLDY    57  36  44 CALM      29.93F
T OR C         PTCLDY    56  38  50 NW3       29.95F

$$
NMZ519>523-061000-
CENTRAL VALLEYS/CENTRAL HIGHLANDS

CITY           SKY/WX    TMP DP  RH WIND       PRES   REMARKS
ALBUQUERQUE    MOCLDY    54  43  66 SW6       29.94F
DOUBLE EAGLE   CLOUDY    49  44  81 SW13G18   29.95F
MORIARTY ARPT  FAIR      46  40  78 W5        29.96F
CLINES CORNERS PTCLDY    45  39  79 W28       29.91F
BELEN          FAIR      51  43  72 W14       29.93F
SOCORRO        FAIR      51  45  78 S5        29.93F

$$
NMZ524>526-539-540-061000-
SOUTHCENTRAL MOUNTAINS

CITY           SKY/WX    TMP DP  RH WIND       PRES   REMARKS
RUIDOSO        CLEAR     48  34  57 NW6       30.00F

$$
NMZ527>531-061000-
NORTHEAST HIGHLANDS/NORTHEAST PLAINS

CITY           SKY/WX    TMP DP  RH WIND       PRES   REMARKS
LAS VEGAS      PTCLDY    46  38  73 SW12      29.87F
RATON          CLOUDY    46  41  82 CALM      29.80F
CLAYTON        CLEAR     49  43  80 W13       29.75F

$$
NMZ532>537-061000-
EASTCENTRAL PLAINS

CITY           SKY/WX    TMP DP  RH WIND       PRES   REMARKS
TUCUMCARI      CLEAR     53  46  77 SW15      29.78F
CANNON AFB     NOT AVBL
CLOVIS AIRPORT CLEAR     52  46  82 SW9       29.86S

$$
NMZ028-029-538-061000-
SOUTHEAST PLAINS

CITY           SKY/WX    TMP DP  RH WIND       PRES   REMARKS
ROSWELL        CLEAR     54  46  74 W5        29.86S
ARTESIA        CLEAR     55  45  67 SW9       29.87F
CARLSBAD       CLEAR     57  45  64 W5        29.86F
HOBBS          CLOUDY    61  61 100 S14       29.89F FOG


$$


USA.gov is the U.S. government's official web portal to all federal, state and local government web resources and services.